CW6981 Weather Reports


Display with metric or nautical units.
time (UTC)temp
F
wind
direction
speed
MPH
gust
MPH
rain 1hr
in
rain 24hr
in
rain mn
in
humidity
%
barometer
mb
20260505181540 40 297 1.0 4.0 0.00 0.18 0.08 91 1021.7
20260505181055 40 102 1.0 4.0 0.00 0.18 0.08 91 1021.7
20260505180532 40 124 0.0 5.0 0.00 0.18 0.08 91 1021.8
20260505180040 40 89 1.0 5.0 0.00 0.18 0.08 91 1021.9
20260505175537 40 258 0.0 3.0 0.00 0.18 0.08 90 1021.9
20260505175034 40 242 0.0 3.0 0.00 0.18 0.08 91 1022.0
20260505174526 40 258 1.0 3.0 0.00 0.18 0.08 91 1022.0
20260505174041 40 202 0.0 2.0 0.00 0.18 0.08 91 1021.9
20260505173539 40 210 0.0 2.0 0.00 0.18 0.08 91 1021.9
20260505173053 40 272 0.0 3.0 0.00 0.18 0.08 91 1021.9
20260505172526 40 254 1.0 3.0 0.00 0.18 0.08 91 1022.0
20260505172042 40 96 0.0 2.0 0.00 0.18 0.08 91 1021.9
20260505171534 40 103 0.0 2.0 0.00 0.18 0.08 91 1021.9
20260505171029 39 79 1.0 2.0 0.00 0.18 0.08 91 1021.9
20260505170546 39 119 0.0 2.0 0.00 0.18 0.08 91 1021.9
20260505170040 39 249 0.0 2.0 0.00 0.18 0.08 91 1021.9
20260505165535 39 249 0.0 2.0 0.01 0.18 0.08 91 1021.9
20260505165050 39 110 1.0 2.0 0.01 0.18 0.08 91 1021.9
20260505164531 39 312 0.0 2.0 0.01 0.18 0.08 92 1022.0
20260505164042 39 312 0.0 2.0 0.01 0.18 0.08 92 1022.0
20260505163534 39 312 0.0 2.0 0.01 0.18 0.08 92 1022.1
20260505163027 39 312 0.0 2.0 0.01 0.18 0.08 92 1022.1
20260505162537 39 258 1.0 2.0 0.01 0.18 0.08 92 1022.1
20260505162030 39 289 0.0 2.0 0.01 0.18 0.08 92 1022.0
20260505161540 39 138 0.0 2.0 0.01 0.18 0.08 92 1022.8
20260505161031 39 96 0.0 1.0 0.01 0.18 0.08 92 1022.9
20260505160543 39 71 1.0 2.0 0.01 0.18 0.08 92 1022.9
20260505153028 38 102 0.0 1.0 0.01 0.17 0.07 91 1022.8
20260505152558 38 222 0.0 0.0 0.01 0.17 0.07 91 1022.8
20260505152053 38 222 0.0 3.0 0.01 0.17 0.07 91 1022.9
20260505151545 38 240 0.0 3.0 0.01 0.17 0.07 91 1022.8
20260505151035 38 226 0.0 1.0 0.01 0.17 0.07 92 1022.8
20260505150545 38 226 0.0 1.0 0.01 0.17 0.07 91 1022.7
20260505140543 37 256 1.0 3.0 0.02 0.16 0.06 91 1022.9
20260505125028 38 238 1.0 4.0 0.02 0.14 0.04 90 1022.3
20260505124540 39 58 0.0 4.0 0.02 0.14 0.04 90 1022.1
20260505124048 39 242 0.0 4.0 0.03 0.14 0.04 90 1022.0
20260505123541 39 148 1.0 4.0 0.03 0.14 0.04 90 1021.9
20260505123034 39 291 0.0 2.0 0.03 0.14 0.04 90 1021.7
20260505122551 39 277 0.0 3.0 0.04 0.14 0.04 90 1021.7
20260505122045 39 277 1.0 5.0 0.04 0.14 0.04 89 1021.8
20260505121537 39 303 1.0 5.0 0.03 0.13 0.03 89 1021.7
20260505121030 39 280 1.0 4.0 0.03 0.13 0.03 89 1021.7
20260505120543 40 257 0.0 6.0 0.02 0.12 0.02 89 1021.5
20260505120035 40 259 2.0 6.0 0.02 0.12 0.02 89 1021.4
20260505115530 40 262 0.0 5.0 0.02 0.12 0.02 89 1021.4
20260505115026 40 264 2.0 6.0 0.02 0.12 0.02 89 1021.3
20260505114539 40 249 1.0 6.0 0.02 0.12 0.02 89 1021.3
20260505114054 40 246 1.0 4.0 0.02 0.12 0.02 89 1021.1
20260505113528 40 76 2.0 4.0 0.01 0.11 0.01 88 1020.9
20260505113043 41 304 2.0 5.0 0.01 0.11 0.01 88 1021.0
20260505112534 41 321 2.0 6.0 0.00 0.10 0.00 88 1020.9
20260505112027 41 272 2.0 6.0 0.00 0.10 0.00 88 1020.8
20260505111539 41 276 2.0 8.0 0.00 0.10 0.00 88 1020.8
20260505111030 42 153 2.0 8.0 0.00 0.10 0.00 88 1020.7
20260505110602 42 248 2.0 5.0 0.00 0.10 0.00 88 1020.6
20260505102042 43 274 4.0 7.0 0.00 0.10 0.00 89 1019.5
20260505101531 44 248 1.0 5.0 0.00 0.10 0.00 89 1019.3
20260505101101 44 274 1.0 10.0 0.00 0.10 0.00 89 1019.2
20260505100534 44 169 2.0 10.0 0.00 0.10 0.00 89 1019.0
20260505100023 44 285 2.0 7.0 0.00 0.10 0.00 88 1019.1
20260505095538 44 248 2.0 8.0 0.00 0.10 0.00 88 1019.1
20260505095029 44 241 4.0 8.0 0.00 0.10 0.00 88 1019.2
20260505094545 44 96 2.0 7.0 0.00 0.10 0.00 88 1019.1
20260505094025 44 255 2.0 7.0 0.00 0.10 0.00 88 1019.1
20260505093558 45 149 2.0 9.0 0.00 0.10 0.00 88 1019.0
20260505093029 45 67 4.0 9.0 0.00 0.10 0.00 87 1019.0
20260505092541 45 141 2.0 7.0 0.00 0.10 0.00 88 1019.1
20260505092055 45 220 2.0 7.0 0.00 0.10 0.00 88 1018.9
20260505091525 46 71 2.0 5.0 0.00 0.10 0.00 88 1018.9
20260505091036 46 320 2.0 5.0 0.00 0.10 0.00 89 1018.8
20260505090528 47 131 1.0 4.0 0.00 0.10 0.00 89 1018.8
20260505090101 48 266 2.0 4.0 0.00 0.10 0.00 90 1018.8
20260505085534 48 255 0.0 1.0 0.00 0.10 0.00 91 1018.5
20260505085054 48 243 0.0 1.0 0.00 0.10 0.00 90 1018.4
20260505084524 48 243 0.0 0.0 0.00 0.10 0.00 90 1018.6
20260505084039 48 243 0.0 0.0 0.00 0.10 0.00 90 1018.7
20260505083534 48 243 0.0 0.0 0.00 0.10 0.00 90 1018.6
20260505083026 48 243 0.0 0.0 0.00 0.10 0.00 90 1018.7
20260505082540 48 243 0.0 0.0 0.00 0.10 0.00 90 1018.7
20260505082037 48 243 0.0 0.0 0.00 0.10 0.00 90 1018.6
20260505081528 48 243 0.0 0.0 0.00 0.10 0.00 90 1018.6
20260505081042 48 243 0.0 0.0 0.00 0.10 0.00 90 1018.6
20260505080557 48 243 0.0 0.0 0.00 0.10 0.00 90 1018.7
20260505080027 48 243 0.0 0.0 0.00 0.10 0.00 90 1018.6
20260505075600 48 243 0.0 0.0 0.00 0.10 0.00 90 1018.6
20260505075054 48 243 0.0 0.0 0.00 0.10 0.00 90 1018.6
20260505074524 48 243 0.0 0.0 0.00 0.10 0.00 89 1018.6
20260505074058 48 243 0.0 0.0 0.00 0.10 0.00 89 1018.7
20260505073553 48 243 0.0 0.0 0.00 0.10 0.00 89 1019.4
20260505073043 48 243 0.0 0.0 0.00 0.10 0.00 89 1019.5
20260505072537 48 243 0.0 0.0 0.00 0.10 0.00 89 1019.5
20260505072032 48 243 0.0 0.0 0.00 0.10 0.00 89 1019.5
20260505071543 48 243 0.0 0.0 0.00 0.10 0.00 89 1019.6
20260505071035 48 243 0.0 0.0 0.00 0.10 0.00 89 1019.7
20260505070530 48 243 0.0 0.0 0.00 0.10 0.00 89 1019.7
20260505070041 48 243 0.0 0.0 0.00 0.10 0.00 89 1019.7
20260505065536 48 243 0.0 0.0 0.00 0.10 0.00 89 1019.6
20260505065036 48 243 0.0 0.0 0.00 0.10 0.00 89 1019.6
20260505064549 48 243 0.0 0.0 0.00 0.10 0.00 89 1019.7
20260505064041 48 243 0.0 0.0 0.00 0.10 0.00 89 1019.7
20260505063536 48 243 0.0 0.0 0.00 0.10 0.00 89 1019.7
20260505063043 48 243 0.0 0.0 0.00 0.10 0.00 89 1019.7
20260505062534 48 243 0.0 0.0 0.00 0.10 0.00 89 1019.7
20260505062046 48 243 0.0 0.0 0.00 0.10 0.00 89 1019.7
20260505061536 48 243 0.0 0.0 0.00 0.10 0.00 89 1019.7
20260505061029 48 243 0.0 0.0 0.00 0.10 0.00 89 1019.7
20260505060542 48 243 0.0 0.0 0.00 0.10 0.00 89 1019.7
20260505060051 48 243 0.0 0.0 0.00 0.10 0.10 88 1019.7
20260505055535 48 243 0.0 0.0 0.00 0.10 0.10 88 1019.7
20260505055031 48 243 0.0 0.0 0.00 0.10 0.10 88 1019.7
20260505054542 48 243 0.0 0.0 0.01 0.10 0.10 88 1019.8
20260505054036 48 243 0.0 0.0 0.01 0.10 0.10 88 1019.8
20260505053531 48 243 0.0 0.0 0.01 0.10 0.10 88 1019.6
20260505053038 48 243 0.0 0.0 0.01 0.10 0.10 88 1019.5
20260505052531 48 243 0.0 0.0 0.01 0.10 0.10 88 1019.6
20260505052102 49 243 0.0 0.0 0.01 0.10 0.10 88 1019.5
20260505051533 49 243 0.0 0.0 0.01 0.10 0.10 88 1019.5
20260505051027 49 243 0.0 0.0 0.01 0.10 0.10 88 1019.6
20260505050537 49 243 0.0 0.0 0.02 0.10 0.10 88 1019.7
20260505041525 50 243 0.0 1.0 0.07 0.09 0.09 86 1019.9
20260505041035 50 243 0.0 1.0 0.07 0.09 0.09 86 1020.2
20260505040528 50 243 0.0 0.0 0.06 0.08 0.08 85 1020.0
20260505040037 50 243 0.0 1.0 0.06 0.08 0.08 85 1019.8
20260505035528 50 243 0.0 1.0 0.06 0.08 0.08 85 1019.8
20260505035025 50 243 0.0 4.0 0.06 0.08 0.08 84 1019.7
20260505034554 50 223 0.0 4.0 0.05 0.07 0.07 84 1019.8
20260505034043 50 303 1.0 4.0 0.04 0.06 0.06 83 1019.8
20260505033535 51 241 1.0 3.0 0.04 0.06 0.06 83 1019.7
20260505033028 51 246 1.0 7.0 0.03 0.05 0.05 82 1019.8
20260505032543 52 261 2.0 7.0 0.02 0.04 0.04 81 1019.6
20260505032036 52 245 1.0 3.0 0.01 0.03 0.03 79 1019.4
20260505031547 52 229 1.0 2.0 0.00 0.02 0.02 78 1019.3
20260505031041 52 236 0.0 4.0 0.00 0.02 0.02 77 1019.2
20260505030533 52 266 1.0 4.0 0.00 0.02 0.02 76 1019.1
20260505030024 52 252 2.0 3.0 0.00 0.02 0.02 76 1019.7
20260505025558 52 254 1.0 2.0 0.00 0.02 0.02 76 1019.5
20260505025035 53 205 0.0 2.0 0.00 0.02 0.02 77 1019.3
20260505024551 53 290 1.0 2.0 0.00 0.02 0.02 79 1019.3
20260505024024 53 267 1.0 2.0 0.00 0.02 0.02 81 1019.1
20260505023559 53 120 0.0 0.0 0.00 0.02 0.02 80 1019.0
20260505023030 53 120 0.0 0.0 0.00 0.02 0.02 79 1018.7
20260505022526 53 120 0.0 0.0 0.01 0.02 0.02 79 1018.5
20260505022101 53 120 0.0 0.0 0.01 0.02 0.02 79 1018.5
20260505021534 53 120 0.0 0.0 0.01 0.02 0.02 79 1018.5
20260505021027 54 120 0.0 0.0 0.01 0.02 0.02 78 1018.4
20260505020540 54 120 0.0 0.0 0.01 0.02 0.02 79 1018.4
20260505020034 54 120 0.0 0.0 0.01 0.02 0.02 78 1018.5
20260505015547 54 120 0.0 0.0 0.01 0.02 0.02 78 1018.6
20260505015042 54 120 0.0 0.0 0.01 0.02 0.02 77 1018.6
20260505014536 54 120 0.0 0.0 0.01 0.02 0.02 77 1018.4
20260505014029 54 120 0.0 0.0 0.01 0.02 0.02 77 1018.1
20260505013544 55 120 0.0 0.0 0.01 0.02 0.02 77 1018.0
20260505013036 55 120 0.0 0.0 0.01 0.02 0.02 76 1018.0
20260505012550 55 120 0.0 0.0 0.01 0.01 0.01 76 1018.1
20260505012044 55 120 0.0 0.0 0.01 0.01 0.01 75 1018.2
20260505011534 55 120 0.0 0.0 0.01 0.01 0.01 74 1018.1
20260505011028 55 120 0.0 2.0 0.01 0.01 0.01 73 1018.1
20260505010544 55 120 0.0 2.0 0.01 0.01 0.01 70 1018.0
20260505010034 55 109 0.0 1.0 0.01 0.01 0.01 71 1017.8
20260505005527 56 108 0.0 2.0 0.01 0.01 0.01 71 1017.9
20260505005024 56 108 0.0 2.0 0.01 0.01 0.01 71 1017.8
20260505004535 56 268 0.0 1.0 0.01 0.01 0.01 71 1017.9
20260505004049 56 268 0.0 2.0 0.01 0.01 0.01 70 1018.0
20260505003541 57 264 0.0 5.0 0.01 0.01 0.01 68 1018.0
20260505003032 57 284 2.0 5.0 0.01 0.01 0.01 65 1018.2
20260505002544 58 283 1.0 6.0 0.00 0.00 0.00 64 1018.0
20260505002059 59 265 1.0 6.0 0.00 0.00 0.00 59 1018.1
20260505001606 60 275 2.0 4.0 0.00 0.00 0.00 55 1017.9
20260505001032 60 252 1.0 2.0 0.00 0.00 0.00 54 1018.0
20260505000542 60 184 0.0 3.0 0.00 0.00 0.00 50 1017.8
20260505000030 60 225 1.0 3.0 0.00 0.00 0.00 47 1017.6
20260504235541 60 131 0.0 2.0 0.00 0.00 0.00 47 1017.5
20260504235038 60 301 1.0 3.0 0.00 0.00 0.00 47 1017.3
20260504234528 60 185 1.0 3.0 0.00 0.00 0.00 50 1017.2
20260504234038 60 110 1.0 2.0 0.00 0.00 0.00 51 1017.2
20260504233532 61 189 0.0 6.0 0.00 0.00 0.00 55 1017.1
20260504233103 61 229 2.0 6.0 0.00 0.00 0.00 46 1017.0
20260504232532 62 254 2.0 5.0 0.00 0.00 0.00 43 1017.0
20260504232044 63 258 2.0 5.0 0.00 0.00 0.00 42 1016.9
20260504231532 63 276 2.0 4.0 0.00 0.00 0.00 41 1016.9
20260504231043 63 295 1.0 4.0 0.00 0.00 0.00 40 1016.9
20260504230553 64 283 1.0 6.0 0.00 0.00 0.00 39 1016.5
20260504230039 64 273 3.0 6.0 0.00 0.00 0.00 38 1016.4
20260504225533 64 232 1.0 5.0 0.00 0.00 0.00 39 1016.3
20260504225042 64 241 3.0 6.0 0.00 0.00 0.00 38 1016.3
20260504224549 64 144 2.0 6.0 0.00 0.00 0.00 37 1016.2
20260504224024 64 200 2.0 9.0 0.00 0.00 0.00 38 1016.3
20260504223539 64 220 4.0 9.0 0.00 0.00 0.00 37 1016.2
20260504223047 65 301 3.0 7.0 0.00 0.00 0.00 35 1015.9
20260504222541 65 233 3.0 7.0 0.00 0.00 0.00 35 1016.1
20260504222033 65 68 2.0 7.0 0.00 0.00 0.00 35 1015.9
20260504221558 65 216 2.0 4.0 0.00 0.00 0.00 36 1015.9
20260504221038 65 283 1.0 7.0 0.00 0.00 0.00 35 1015.9
20260504220529 65 297 2.0 8.0 0.00 0.00 0.00 35 1015.9
20260504220040 66 75 2.0 15.0 0.00 0.00 0.00 33 1015.9
20260504215531 67 90 4.0 15.0 0.00 0.00 0.00 31 1015.6
20260504215025 68 92 2.0 7.0 0.00 0.00 0.00 27 1015.5
20260504214541 68 117 1.0 7.0 0.00 0.00 0.00 26 1015.3
20260504214035 69 104 1.0 7.0 0.00 0.00 0.00 27 1015.1
20260504213541 69 75 3.0 7.0 0.00 0.00 0.00 27 1015.1
20260504213055 69 105 2.0 5.0 0.00 0.00 0.00 27 1015.0
20260504212528 69 126 3.0 5.0 0.00 0.00 0.00 27 1015.1
20260504212024 69 75 2.0 5.0 0.00 0.00 0.00 28 1015.2
20260504211557 69 89 2.0 6.0 0.00 0.00 0.00 29 1015.3
20260504211030 68 97 3.0 6.0 0.00 0.00 0.00 28 1015.3
20260504210530 69 86 2.0 5.0 0.00 0.00 0.00 28 1015.4
20260504210042 69 224 1.0 8.0 0.00 0.00 0.00 29 1015.3
20260504205536 69 101 3.0 8.0 0.00 0.00 0.00 27 1015.5
20260504205052 71 300 2.0 5.0 0.00 0.00 0.00 27 1015.5
20260504204526 70 84 1.0 5.0 0.00 0.00 0.00 29 1015.7
20260504204044 70 281 3.0 5.0 0.00 0.00 0.00 29 1015.8
20260504203558 70 261 2.0 7.0 0.00 0.00 0.00 31 1016.0
20260504203030 69 249 1.0 7.0 0.00 0.00 0.00 31 1016.2
20260504202524 70 300 1.0 4.0 0.00 0.00 0.00 30 1016.3
20260504202103 70 267 2.0 5.0 0.00 0.00 0.00 29 1016.2
20260504201534 70 279 2.0 5.0 0.00 0.00 0.00 29 1016.3
20260504201027 69 79 2.0 5.0 0.00 0.00 0.00 29 1016.3
20260504200543 69 268 1.0 5.0 0.00 0.00 0.00 30 1016.3
20260504200036 68 252 2.0 5.0 0.00 0.00 0.00 31 1016.4
20260504195527 67 80 3.0 6.0 0.00 0.00 0.00 31 1016.5
20260504195042 66 250 2.0 7.0 0.00 0.00 0.00 34 1016.4
20260504194536 66 129 4.0 7.0 0.00 0.00 0.00 34 1016.5
20260504194030 65 64 2.0 5.0 0.00 0.00 0.00 36 1016.4
20260504193546 65 233 1.0 12.0 0.00 0.00 0.00 35 1016.3
20260504193038 65 119 5.0 12.0 0.00 0.00 0.00 33 1016.4
20260504192532 65 239 2.0 9.0 0.00 0.00 0.00 34 1016.4
20260504192049 65 73 2.0 5.0 0.00 0.00 0.00 37 1016.4
20260504191528 65 58 2.0 5.0 0.00 0.00 0.00 34 1016.6
20260504191058 65 225 2.0 3.0 0.00 0.00 0.00 37 1016.8
20260504190533 65 304 0.0 3.0 0.00 0.00 0.00 36 1016.9
20260504190044 65 265 1.0 3.0 0.00 0.00 0.00 37 1016.9
20260504185535 66 66 1.0 4.0 0.00 0.00 0.00 34 1016.7
20260504185032 67 277 0.0 4.0 0.00 0.00 0.00 30 1016.6
20260504184544 67 248 1.0 3.0 0.00 0.00 0.00 29 1016.3
20260504184037 68 120 1.0 4.0 0.00 0.00 0.00 26 1016.2
20260504183551 68 106 2.0 5.0 0.00 0.00 0.00 25 1016.1
20260504183032 69 335 1.0 9.0 0.00 0.00 0.00 25 1016.4
20260504182543 69 75 3.0 12.0 0.00 0.00 0.00 23 1016.2
20260504182036 69 84 6.0 17.0 0.00 0.00 0.00 23 1016.1